Temp
-12 -11 -11 -11 -11 -11 -11 -11 -11 -11 -11 -11 -11 -11 -11 -10 -10 -10 -10 -10 -10 -10 -10 -10 -10 -10 -10 -10 -10 -10 -10 -10 -10 -10 -10 -11 -11 -11 -11 -11 -11 -11 -11 -12 -12 -12 -12 -12 -12
-11 -11 -11 -12 -12 -12 -12 -10 -11 -12 -11 -11 -11 -10 -10 -11 -10 -10 -10 -10 -10 -10 -10 -10 -10 -11 -11 -10 -10 -10 -10 -11 -10 -10 -11 -11 -11 -11 -11 -11 -11 -11 -12 -11 -12 -12 -12 -12 -12
-11 -11 -11 -11 -11 -12 -11 -11 -11 -11 -11 -11 -11 -11 -10 -10 -10 -10 -10 -10 -11 -10 -10 -10 -10 -10 -11 -11 -11 -11 -11 -11 -11 -11 -11 -11 -11 -11 -11 -11 -11 -11 -11 -11 -11 -11 -11 -12 -12
-11 -11 -11 -11 -11 -11 -11 -11 -11 -11 -11 -11 -11 -11 -10 -11 -10 -10 -10 -10 -10 -10 -10 -11 -11 -11 -11 -11 -11 -11 -11 -11 -11 -11 -11 -11 -11 -11 -11 -11 -11 -11 -11 -11 -11 -11 -11 -11 -11
-11 -10 -11 -11 -10 -11 -11 -11 -10 -10 -11 -11 -12 -11 -10 -10 -10 -11 -11 -11 -11 -11 -11 -11 -11 -11 -11 -11 -11 -11 -11 -11 -11 -11 -11 -12 -12 -12 -12 -11 -11 -11 -11 -11 -11 -11 -11 -11 -11
-10 -10 -11 -10 -10 -10 -10 -10 -10 -10 -10 -11 -12 -12 -11 -10 -10 -11 -11 -11 -11 -11 -11 -11 -11 -11 -11 -11 -11 -11 -12 -12 -12 -12 -12 -12 -12 -12 -11 -12 -12 -12 -11 -11 -11 -11 -11 -11 -11
-10 -10 -11 -10 -10 -9 -10 -10 -10 -10 -11 -12 -12 -12 -11 -10 -10 -10 -10 -11 -11 -12 -12 -12 -12 -12 -12 -11 -11 -11 -11 -12 -12 -12 -12 -12 -12 -12 -12 -12 -12 -12 -12 -12 -12 -12 -11 -11 -11
-10 -10 -10 -10 -10 -10 -10 -10 -10 -10 -9 -11 -12 -12 -11 -10 -10 -11 -11 -11 -11 -12 -12 -12 -12 -12 -12 -12 -12 -12 -12 -12 -12 -12 -12 -12 -12 -12 -12 -12 -12 -12 -12 -12 -12 -12 -12 -12 -12
-10 -9 -10 -10 -11 -10 -10 -10 -10 -10 -10 -11 -11 -11 -10 -10 -11 -11 -11 -11 -11 -11 -11 -11 -11 -11 -11 -11 -11 -11 -11 -11 -11 -11 -11 -11 -12 -12 -12 -12 -12 -12 -12 -12 -12 -12 -12 -12 -12
-10 -10 -9 -10 -10 -10 -10 -10 -10 -10 -10 -11 -11 -10 -10 -11 -11 -11 -11 -11 -11 -11 -11 -11 -11 -11 -11 -11 -11 -11 -11 -11 -11 -11 -11 -11 -11 -11 -11 -11 -12 -12 -12 -12 -11 -12 -12 -12 -12
-9 -10 -10 -10 -10 -10 -10 -10 -10 -10 -10 -10 -10 -10 -11 -10 -10 -11 -10 -10 -10 -11 -11 -11 -11 -11 -11 -11 -11 -11 -11 -11 -11 -11 -11 -11 -11 -11 -11 -11 -12 -12 -11 -11 -12 -11 -11 -12 -12
-11 -10 -10 -10 -10 -10 -10 -10 -10 -10 -9 -10 -10 -10 -10 -10 -10 -10 -10 -10 -11 -11 -11 -11 -11 -11 -11 -11 -11 -11 -11 -11 -11 -11 -11 -11 -11 -11 -11 -11 -11 -11 -11 -12 -12 -12 -12 -12 -12
-10 -11 -10 -10 -10 -10 -10 -10 -10 -9 -9 -9 -10 -10 -10 -10 -10 -10 -10 -10 -10 -11 -11 -10 -10 -10 -10 -10 -11 -11 -11 -11 -11 -11 -11 -11 -11 -11 -11 -11 -11 -11 -11 -11 -11 -12 -13 -13 -13
-11 -10 -10 -10 -10 -10 -10 -10 -9 -9 -9 -10 -10 -10 -9 -9 -9 -10 -10 -10 -9 -10 -10 -10 -10 -10 -10 -10 -10 -11 -11 -11 -11 -11 -11 -11 -11 -11 -11 -12 -12 -12 -12 -12 -12 -12 -12 -13 -13
-11 -11 -10 -10 -10 -10 -9 -9 -9 -9 -9 -9 -9 -9 -9 -9 -9 -10 -10 -10 -10 -10 -10 -9 -9 -9 -10 -10 -10 -10 -11 -11 -11 -11 -11 -11 -11 -12 -12 -12 -12 -12 -12 -12 -12 -12 -13 -13 -13
-11 -11 -11 -10 -9 -9 -9 -9 -9 -9 -9 -9 -9 -9 -9 -10 -10 -10 -10 -10 -10 -10 -10 -10 -10 -10 -10 -10 -10 -10 -10 -10 -11 -11 -11 -11 -11 -12 -12 -12 -12 -12 -13 -13 -13 -13 -13 -13 -14
-11 -11 -10 -10 -10 -9 -9 -9 -9 -9 -9 -9 -9 -9 -10 -10 -10 -10 -10 -10 -10 -10 -10 -10 -10 -10 -10 -10 -10 -10 -10 -11 -11 -11 -11 -11 -11 -12 -12 -12 -13 -13 -13 -13 -13 -13 -13 -14 -14
-9 -10 -10 -10 -10 -10 -9 -9 -9 -9 -10 -10 -10 -10 -10 -10 -10 -10 -10 -10 -10 -10 -10 -10 -10 -10 -10 -10 -10 -10 -10 -11 -11 -11 -11 -12 -12 -12 -12 -12 -13 -13 -13 -13 -13 -13 -14 -14 -14
-9 -9 -9 -10 -10 -10 -10 -10 -10 -10 -10 -10 -10 -10 -10 -10 -10 -10 -10 -10 -10 -10 -10 -10 -10 -10 -10 -10 -10 -10 -11 -11 -11 -11 -11 -12 -12 -12 -13 -13 -13 -13 -13 -14 -14 -14 -14 -14 -15
-9 -9 -10 -10 -10 -10 -10 -10 -10 -10 -10 -10 -10 -10 -10 -10 -10 -10 -10 -10 -10 -10 -11 -11 -11 -11 -11 -11 -11 -11 -11 -11 -11 -12 -12 -12 -12 -12 -13 -13 -13 -14 -14 -14 -14 -14 -14 -15 -15
-9 -9 -10 -10 -10 -9 -9 -10 -10 -10 -10 -10 -10 -10 -10 -10 -10 -10 -10 -10 -10 -10 -10 -10 -11 -11 -11 -11 -11 -11 -11 -11 -12 -12 -12 -12 -13 -13 -13 -13 -14 -14 -15 -15 -15 -15 -15 -15 -15
-9 -10 -10 -10 -10 -10 -10 -9 -10 -10 -10 -10 -10 -10 -10 -10 -11 -11 -11 -11 -10 -10 -10 -10 -11 -11 -11 -11 -11 -11 -11 -11 -11 -12 -12 -12 -13 -13 -13 -13 -14 -15 -15 -15 -15 -15 -16 -16 -16
-10 -10 -10 -10 -10 -9 -10 -9 -9 -9 -10 -10 -10 -11 -10 -10 -11 -11 -11 -11 -11 -11 -11 -11 -12 -12 -12 -12 -12 -12 -12 -12 -12 -12 -12 -12 -13 -13 -14 -14 -14 -14 -15 -15 -16 -16 -16 -16 -16
-10 -10 -10 -10 -10 -10 -10 -10 -10 -9 -10 -11 -11 -11 -11 -10 -11 -11 -11 -11 -11 -11 -11 -11 -11 -12 -12 -12 -13 -13 -13 -13 -13 -13 -13 -13 -13 -14 -13 -14 -15 -15 -15 -15 -16 -16 -16 -16 -17
-11 -11 -10 -10 -10 -11 -10 -10 -10 -9 -10 -10 -10 -11 -11 -11 -11 -11 -11 -11 -12 -12 -11 -12 -12 -12 -12 -13 -13 -13 -13 -13 -13 -14 -14 -14 -14 -15 -14 -15 -15 -15 -16 -16 -16 -16 -16 -17 -17
-11 -11 -11 -10 -10 -11 -11 -11 -11 -11 -11 -11 -11 -11 -11 -11 -12 -12 -11 -11 -12 -12 -12 -12 -12 -12 -12 -13 -13 -13 -14 -14 -14 -14 -15 -15 -15 -15 -15 -15 -16 -16 -16 -16 -16 -16 -16 -17 -17
-12 -11 -11 -11 -11 -11 -10 -11 -11 -11 -11 -11 -12 -12 -12 -12 -12 -12 -12 -12 -12 -12 -12 -12 -13 -13 -13 -13 -14 -14 -14 -15 -15 -15 -15 -15 -15 -16 -16 -16 -16 -16 -16 -16 -17 -17 -17 -17 -17
-12 -12 -11 -12 -11 -11 -11 -12 -11 -11 -12 -12 -12 -12 -12 -12 -12 -12 -12 -12 -12 -12 -12 -13 -13 -13 -13 -13 -14 -15 -15 -16 -16 -16 -16 -16 -16 -16 -16 -16 -16 -16 -17 -17 -17 -17 -17 -17 -18
-12 -12 -12 -12 -12 -12 -12 -11 -11 -12 -12 -13 -13 -12 -12 -12 -12 -13 -12 -13 -13 -13 -13 -13 -13 -14 -14 -14 -15 -16 -16 -17 -17 -17 -17 -17 -17 -17 -17 -17 -17 -17 -17 -17 -17 -17 -17 -17 -18
-12 -12 -12 -12 -12 -12 -12 -11 -12 -12 -12 -12 -12 -12 -12 -13 -13 -13 -13 -13 -13 -14 -14 -14 -14 -15 -15 -15 -16 -16 -17 -17 -17 -17 -17 -17 -17 -17 -17 -17 -18 -18 -18 -18 -18 -18 -18 -18 -18
Height
5853 5857 5867 5874 5875 5875 5877 5876 5882 5883 5892 5889 5888 5891 5892 5891 5890 5895 5894 5894 5895 5896 5895 5894 5893 5892 5892 5890 5889 5888 5887 5886 5885 5884 5883 5883 5882 5881 5880 5878 5877 5876 5874 5873 5872 5870 5869 5867 5866
5860 5866 5872 5877 5878 5883 5874 5870 5884 5893 5894 5894 5894 5895 5896 5895 5895 5896 5897 5896 5895 5898 5897 5896 5895 5894 5893 5892 5891 5890 5889 5887 5887 5886 5885 5884 5883 5882 5880 5878 5878 5876 5875 5874 5872 5870 5869 5868 5866
5865 5870 5878 5880 5883 5884 5886 5888 5889 5893 5893 5893 5895 5896 5897 5897 5899 5899 5898 5898 5898 5899 5898 5897 5896 5896 5894 5893 5892 5891 5889 5887 5886 5886 5885 5884 5883 5883 5881 5879 5879 5877 5876 5874 5872 5871 5869 5868 5867
5871 5875 5882 5883 5877 5881 5887 5891 5890 5891 5893 5895 5895 5897 5899 5898 5900 5900 5900 5900 5900 5900 5899 5898 5898 5897 5896 5894 5893 5891 5889 5888 5887 5886 5884 5883 5883 5882 5881 5879 5878 5877 5876 5874 5873 5871 5870 5869 5867
5879 5883 5888 5892 5889 5887 5888 5890 5892 5893 5892 5892 5894 5897 5898 5899 5900 5900 5901 5901 5901 5901 5901 5900 5898 5898 5896 5894 5893 5892 5890 5888 5887 5886 5884 5883 5882 5881 5880 5879 5878 5876 5876 5874 5873 5872 5870 5869 5867
5887 5884 5889 5888 5891 5891 5891 5892 5893 5891 5889 5889 5893 5895 5899 5900 5901 5901 5901 5901 5901 5901 5901 5899 5898 5897 5896 5894 5893 5892 5890 5889 5887 5886 5884 5883 5881 5880 5879 5878 5877 5875 5875 5874 5873 5871 5870 5869 5867
5886 5887 5890 5892 5892 5893 5893 5893 5894 5889 5884 5883 5888 5893 5899 5901 5901 5901 5901 5901 5902 5901 5899 5898 5897 5896 5894 5893 5892 5891 5889 5888 5887 5886 5884 5883 5880 5879 5877 5876 5875 5874 5873 5872 5871 5870 5869 5868 5867
5884 5889 5891 5891 5891 5892 5893 5895 5893 5886 5880 5882 5887 5895 5900 5900 5900 5900 5901 5901 5901 5900 5898 5897 5896 5894 5893 5892 5891 5889 5888 5887 5885 5884 5883 5882 5880 5878 5876 5875 5873 5873 5872 5870 5869 5867 5866 5866 5865
5883 5889 5890 5890 5891 5892 5895 5894 5893 5889 5884 5888 5893 5898 5900 5901 5901 5901 5901 5901 5900 5899 5897 5896 5895 5893 5892 5891 5890 5888 5886 5885 5885 5883 5880 5880 5878 5877 5875 5873 5872 5870 5869 5868 5868 5866 5864 5861 5859
5887 5886 5893 5892 5891 5894 5896 5897 5893 5892 5892 5894 5896 5899 5900 5901 5901 5901 5899 5899 5898 5897 5895 5895 5893 5892 5890 5889 5888 5886 5885 5882 5880 5879 5878 5875 5874 5874 5872 5871 5869 5866 5865 5865 5864 5863 5861 5859 5857
5888 5889 5890 5892 5893 5896 5899 5897 5896 5897 5897 5897 5897 5899 5899 5900 5900 5900 5900 5900 5898 5897 5896 5892 5891 5891 5888 5886 5885 5883 5882 5879 5877 5876 5874 5872 5870 5869 5868 5866 5864 5862 5860 5859 5859 5856 5855 5854 5855
5889 5891 5892 5893 5896 5898 5898 5895 5898 5897 5898 5900 5900 5900 5900 5900 5900 5899 5899 5898 5897 5895 5895 5893 5890 5888 5887 5883 5882 5880 5879 5875 5873 5871 5870 5868 5866 5865 5864 5862 5859 5858 5856 5855 5853 5851 5849 5848 5847
5889 5892 5893 5895 5895 5895 5897 5897 5900 5900 5901 5902 5901 5902 5902 5902 5902 5901 5899 5898 5896 5894 5893 5890 5889 5886 5884 5881 5878 5877 5875 5872 5871 5868 5866 5864 5862 5860 5858 5857 5854 5854 5851 5849 5846 5844 5842 5840 5839
5890 5892 5894 5895 5895 5896 5897 5900 5902 5903 5902 5902 5902 5902 5902 5902 5901 5901 5898 5896 5895 5892 5892 5889 5886 5884 5881 5878 5876 5874 5871 5869 5866 5864 5862 5861 5858 5856 5854 5852 5850 5848 5845 5843 5840 5838 5835 5832 5831
5890 5892 5894 5894 5894 5896 5900 5902 5901 5902 5904 5903 5902 5902 5902 5902 5900 5898 5898 5896 5894 5890 5888 5885 5883 5881 5879 5876 5873 5871 5868 5865 5863 5860 5858 5856 5854 5852 5850 5847 5845 5843 5840 5837 5833 5831 5828 5825 5823
5890 5892 5892 5894 5894 5897 5900 5901 5902 5902 5903 5902 5903 5903 5901 5900 5898 5898 5896 5894 5891 5888 5886 5884 5883 5880 5877 5874 5871 5867 5864 5861 5858 5856 5853 5851 5849 5847 5844 5842 5839 5836 5833 5830 5826 5823 5821 5818 5814
5893 5892 5891 5894 5896 5897 5899 5901 5901 5902 5902 5901 5901 5901 5901 5899 5897 5895 5893 5890 5888 5886 5884 5882 5880 5877 5874 5871 5868 5864 5862 5858 5854 5851 5849 5846 5843 5841 5838 5835 5832 5829 5826 5823 5820 5817 5814 5812 5808
5891 5895 5894 5892 5894 5895 5897 5898 5899 5900 5899 5899 5900 5899 5899 5897 5894 5892 5890 5888 5886 5884 5881 5879 5876 5873 5869 5866 5863 5860 5857 5854 5850 5846 5843 5840 5836 5833 5830 5827 5825 5822 5818 5816 5814 5811 5809 5805 5801
5891 5893 5897 5896 5896 5896 5896 5897 5898 5897 5898 5898 5897 5897 5896 5893 5892 5890 5889 5886 5884 5881 5879 5876 5873 5870 5866 5863 5859 5856 5852 5848 5844 5840 5836 5833 5829 5826 5823 5820 5817 5814 5811 5808 5806 5804 5802 5800 5797
5890 5893 5895 5896 5897 5897 5898 5896 5896 5896 5896 5895 5895 5894 5893 5892 5890 5888 5886 5885 5882 5880 5877 5874 5869 5866 5862 5858 5855 5851 5847 5842 5838 5834 5830 5826 5822 5819 5815 5812 5809 5806 5803 5801 5798 5796 5794 5793 5792
5889 5893 5894 5896 5896 5897 5897 5897 5896 5895 5894 5893 5892 5892 5891 5890 5888 5885 5882 5879 5876 5873 5870 5867 5862 5859 5856 5851 5848 5844 5840 5837 5832 5827 5824 5819 5816 5812 5808 5804 5800 5797 5795 5793 5791 5788 5786 5783 5782
5891 5891 5893 5894 5894 5895 5895 5896 5895 5893 5891 5890 5889 5888 5887 5885 5883 5880 5877 5874 5870 5867 5864 5861 5858 5853 5850 5845 5841 5836 5831 5827 5823 5819 5815 5810 5807 5803 5799 5795 5792 5789 5786 5784 5782 5779 5777 5774 5772
5889 5889 5890 5891 5891 5891 5892 5891 5891 5891 5889 5887 5885 5883 5881 5880 5879 5878 5875 5870 5866 5862 5859 5856 5854 5850 5845 5840 5835 5830 5825 5819 5814 5809 5804 5800 5796 5792 5789 5785 5781 5778 5776 5773 5771 5769 5767 5765 5763
5884 5886 5886 5886 5887 5889 5886 5886 5887 5887 5887 5883 5882 5879 5876 5875 5872 5871 5869 5867 5863 5858 5855 5850 5846 5843 5839 5834 5828 5824 5817 5813 5807 5802 5796 5791 5786 5781 5776 5774 5771 5768 5764 5762 5759 5757 5755 5753 5752
5882 5883 5884 5885 5884 5885 5883 5881 5880 5879 5879 5879 5879 5877 5874 5871 5868 5865 5862 5860 5857 5853 5847 5843 5838 5835 5831 5826 5821 5816 5810 5803 5797 5792 5788 5782 5777 5771 5767 5762 5759 5756 5753 5750 5747 5744 5742 5739 5737
5880 5880 5881 5881 5881 5881 5878 5877 5877 5874 5870 5869 5870 5872 5870 5867 5864 5859 5855 5853 5850 5847 5844 5838 5832 5827 5823 5817 5811 5805 5799 5792 5785 5779 5774 5769 5764 5759 5755 5751 5747 5743 5739 5736 5733 5730 5728 5724 5722
5875 5876 5877 5877 5875 5874 5874 5872 5872 5874 5870 5866 5864 5861 5859 5860 5858 5853 5849 5846 5843 5839 5835 5831 5825 5818 5814 5808 5803 5797 5789 5780 5772 5765 5760 5756 5751 5746 5742 5738 5734 5729 5725 5722 5719 5716 5712 5708 5706
5871 5872 5872 5871 5870 5869 5870 5867 5867 5867 5867 5865 5861 5857 5854 5852 5850 5846 5842 5838 5835 5830 5826 5823 5818 5812 5805 5798 5792 5785 5777 5770 5762 5754 5749 5743 5738 5734 5729 5725 5721 5716 5711 5706 5702 5699 5695 5693 5691
5866 5866 5866 5866 5864 5863 5864 5865 5860 5860 5861 5860 5857 5852 5847 5845 5843 5839 5835 5831 5827 5823 5817 5812 5806 5799 5792 5787 5781 5773 5766 5758 5750 5743 5737 5731 5725 5721 5717 5712 5707 5702 5697 5692 5687 5683 5680 5676 5673
5859 5860 5860 5859 5860 5859 5856 5861 5857 5851 5849 5849 5850 5848 5844 5838 5833 5830 5827 5822 5817 5812 5807 5802 5796 5789 5782 5775 5768 5761 5753 5746 5738 5732 5726 5720 5714 5708 5703 5698 5692 5687 5682 5676 5671 5667 5662 5658 5655
Wind_Speed
27 34 36 30 28 24 23 16 17 15 6 7 10 11 16 22 20 21 22 19 18 16 15 16 15 15 15 15 14 13 11 8 6 5 5 5 7 7 9 10 11 10 11 12 14 16 17 16 15
23 20 28 26 22 19 11 15 15 7 5 6 10 7 13 20 22 18 19 17 18 14 15 15 14 13 13 13 13 12 11 9 7 3 1 1 3 4 5 6 7 8 9 9 11 12 13 14 15
18 13 18 22 18 19 11 14 10 5 3 4 6 5 11 20 17 15 16 15 15 13 14 13 11 10 11 11 10 9 9 8 6 4 4 4 4 4 5 5 5 6 6 7 7 9 9 10 10
18 16 15 10 24 17 15 11 19 9 5 7 5 2 7 8 13 13 12 11 9 9 10 9 9 10 9 9 9 8 8 7 7 7 6 6 6 7 8 8 7 7 6 5 5 5 5 6 7
4 11 11 9 17 16 17 10 14 21 17 5 5 3 6 5 14 9 9 8 7 8 10 8 7 8 8 7 7 7 8 8 8 7 7 8 9 10 9 10 11 11 11 10 8 8 6 4 4
6 13 8 11 13 14 11 10 12 15 15 7 9 9 7 2 6 8 7 9 7 7 7 8 8 8 8 8 8 8 8 8 10 11 12 13 13 12 11 11 12 13 13 13 13 12 12 11 8
6 15 12 8 12 11 7 10 14 16 15 10 12 14 10 5 4 5 6 6 6 8 9 9 10 9 10 11 12 12 10 9 10 12 13 14 15 16 16 16 15 14 14 13 15 16 16 16 16
15 13 11 11 11 9 9 13 17 18 14 10 19 16 8 7 6 2 4 5 7 9 11 12 13 12 13 13 13 13 12 12 15 15 17 16 16 16 17 17 19 21 20 19 16 15 15 18 20
18 12 11 10 10 9 12 14 14 14 28 21 14 14 10 8 4 3 4 6 7 9 10 11 12 13 14 15 15 17 18 18 19 19 18 18 17 17 18 19 20 21 22 24 24 23 21 19 19
15 18 9 10 11 12 11 8 10 14 19 19 17 15 11 6 3 2 5 5 7 10 12 13 15 16 18 18 18 19 18 20 20 20 19 19 18 20 20 20 20 20 22 23 25 28 26 27 26
12 15 13 12 12 10 6 6 8 11 14 14 14 12 8 6 5 5 7 9 12 13 14 16 17 18 20 20 21 23 22 23 23 23 22 22 22 21 21 20 21 22 24 24 24 25 28 28 31
13 14 12 10 12 6 6 8 8 10 14 12 12 11 8 7 6 6 7 10 11 13 15 17 18 20 21 23 22 23 22 23 23 23 23 24 23 23 22 24 26 26 26 26 27 28 30 31 31
15 13 12 9 8 6 7 8 12 14 14 12 11 8 6 5 5 7 8 8 10 12 15 17 19 20 22 23 24 23 23 22 22 23 23 24 26 25 24 25 27 27 28 30 33 33 33 33 33
13 10 10 10 7 6 9 13 14 13 12 10 9 8 8 6 5 6 9 8 8 8 11 12 14 15 17 18 20 22 22 23 23 23 24 24 23 22 25 27 28 28 29 28 30 35 38 36 35
9 12 7 8 7 12 13 11 12 12 8 8 7 7 6 5 4 2 3 5 9 10 12 15 16 16 17 17 18 18 19 21 22 23 24 23 23 23 26 26 27 27 30 31 32 33 35 37 36
9 7 10 10 17 16 13 12 10 9 7 6 4 2 2 1 2 4 6 8 10 12 14 15 15 16 17 17 18 18 19 20 21 22 24 26 27 27 30 29 28 28 30 30 32 33 32 33 34
5 8 15 16 14 14 13 11 9 7 6 4 2 0 2 4 6 7 9 11 12 14 16 17 18 18 19 20 20 20 20 20 20 22 24 25 27 29 31 31 31 31 32 32 32 33 30 30 32
10 9 14 14 12 13 12 10 10 8 5 2 2 3 5 7 9 10 12 14 15 16 18 18 19 20 21 22 22 23 24 25 25 24 24 26 27 29 31 31 32 32 33 33 33 33 31 28 30
15 16 11 9 9 8 8 9 8 6 5 5 4 6 7 11 11 12 13 15 17 19 20 21 21 23 25 27 28 27 28 27 28 28 29 28 28 30 31 32 32 33 33 33 35 35 32 29 26
14 11 10 9 7 8 9 8 7 6 6 7 8 8 9 11 13 15 15 16 21 21 22 22 25 26 27 28 30 32 32 33 33 33 33 32 32 32 33 33 33 33 33 33 33 33 33 29 25
14 9 9 10 10 11 9 7 7 8 8 9 8 9 11 12 14 17 18 20 24 25 27 27 29 30 31 32 33 33 35 33 34 35 35 36 36 36 36 35 35 35 35 35 35 34 33 33 32
12 11 12 12 11 11 12 8 7 11 13 11 12 13 14 15 17 18 21 23 26 29 30 30 31 33 35 35 36 37 37 38 39 38 36 36 36 37 39 38 37 38 37 38 38 37 37 36 35
9 16 15 13 14 14 16 16 14 10 14 13 15 18 19 20 21 20 21 24 27 30 32 32 31 32 36 38 40 42 42 43 43 42 42 40 40 38 37 39 40 40 40 41 43 43 42 41 40
18 18 16 17 20 16 20 20 20 17 10 18 17 20 23 23 25 25 25 25 27 31 32 33 35 34 39 42 42 42 44 46 47 47 45 43 43 42 42 39 39 40 41 43 45 47 48 48 47
20 19 20 21 22 20 23 25 24 21 19 20 20 21 25 27 28 28 30 29 30 32 35 36 37 39 43 44 44 46 46 46 46 46 45 43 41 42 42 42 41 41 41 43 44 45 48 52 53
20 23 24 24 24 23 26 25 24 26 30 29 26 24 27 28 30 32 33 34 35 35 36 38 39 44 44 47 50 52 53 53 51 49 46 45 44 42 42 42 41 41 42 43 45 46 48 50 52
24 24 22 24 25 27 28 28 27 26 29 30 30 34 36 34 33 35 37 37 38 39 39 39 41 46 45 50 54 56 57 56 54 52 49 47 47 46 45 46 45 44 44 46 46 46 48 51 52
26 24 24 25 26 27 25 26 29 31 30 29 32 36 39 39 37 39 40 41 40 41 43 41 41 46 48 52 53 58 60 61 57 53 49 48 48 47 48 49 49 49 50 51 51 52 53 52 51
29 27 26 27 30 31 29 30 33 31 29 30 31 35 39 39 40 40 42 43 43 44 45 44 45 48 51 54 57 62 63 62 57 53 49 48 48 48 48 50 51 51 53 54 55 56 56 57 57
34 32 33 33 32 31 35 32 35 39 38 38 35 35 37 41 43 43 42 43 45 46 47 49 50 51 52 58 60 69 66 60 55 52 49 49 49 49 49 51 53 53 54 55 56 58 58 58 58
Wind_Direction
176 189 197 190 197 209 220 204 84 80 40 52 45 54 59 55 65 88 86 87 75 64 61 59 58 61 56 56 55 54 54 60 87 108 117 109 90 79 65 64 66 61 59 51 49 47 44 45 47
178 187 195 203 213 222 257 99 91 75 29 7 13 46 73 75 76 87 81 73 73 64 60 56 47 44 51 53 53 55 58 55 45 51 92 92 60 50 59 55 54 58 61 59 53 52 48 44 44
181 194 199 207 214 235 101 79 97 50 7 327 332 2 94 91 89 88 92 86 81 70 64 55 43 40 37 32 37 46 50 55 53 35 3 337 330 332 343 360 9 20 31 41 48 48 46 46 47
186 190 191 7 184 92 81 66 30 23 314 286 298 9 133 353 107 86 86 80 72 65 58 38 34 30 22 18 14 11 20 27 28 14 356 339 330 323 318 319 322 328 335 346 360 14 24 31 40
203 207 167 94 66 72 64 60 27 6 16 321 257 177 243 23 110 89 72 67 58 54 37 28 16 8 10 6 1 350 352 354 354 352 352 348 337 325 320 314 313 314 312 311 314 315 318 332 348
108 242 137 66 79 68 61 48 17 359 350 316 255 218 242 345 140 106 70 44 29 23 3 12 1 347 349 355 351 346 348 345 341 335 335 335 327 322 324 322 311 304 303 305 306 303 301 299 294
122 99 107 119 86 73 44 19 357 356 338 256 206 200 213 269 150 82 21 20 7 360 349 344 349 339 341 337 336 335 330 333 335 329 325 324 321 319 315 311 310 310 308 302 299 301 299 296 295
123 119 135 121 96 71 34 18 1 26 69 127 152 171 207 163 156 122 14 351 341 339 339 339 332 332 331 333 330 327 323 316 321 322 319 319 319 315 314 312 312 312 307 303 300 296 296 296 294
132 122 131 118 100 72 37 14 21 59 78 97 115 145 144 140 117 40 13 347 325 328 336 339 336 333 330 328 327 327 325 318 317 318 320 321 319 317 309 309 308 305 304 305 304 297 293 287 281
111 115 145 107 81 58 38 23 55 85 94 113 136 138 135 117 99 26 2 351 3 357 349 345 343 340 335 332 330 324 320 315 314 312 311 308 308 310 308 306 307 303 301 299 300 299 298 291 286
133 117 120 95 75 66 54 49 99 105 112 118 129 133 122 115 80 44 23 358 356 352 341 340 338 334 331 331 330 324 326 322 321 318 313 310 309 307 305 303 297 293 293 292 291 289 291 291 292
140 126 115 104 90 93 72 87 119 119 112 117 116 110 96 68 43 27 6 356 354 346 341 337 334 335 331 327 326 322 324 320 320 318 317 314 312 309 303 298 297 297 294 293 288 285 284 283 282
141 127 121 109 116 105 97 119 124 121 123 115 104 94 78 69 40 10 9 357 347 341 338 335 328 330 333 331 332 331 331 328 326 321 314 312 312 312 310 310 307 304 301 297 294 288 280 279 279
118 115 123 131 120 116 114 119 119 114 112 110 98 92 84 75 58 10 360 360 360 332 325 335 340 344 343 338 335 330 331 328 325 321 317 312 309 306 309 309 309 309 307 306 304 300 292 279 272
143 137 146 133 127 122 122 119 117 109 107 96 93 94 89 84 74 35 17 340 353 353 348 353 351 351 344 342 336 330 331 324 319 316 312 309 305 300 303 301 300 302 304 307 310 311 303 292 281
169 162 148 142 129 129 133 134 124 124 123 109 113 121 97 322 12 348 352 355 350 348 344 341 333 334 330 331 335 335 329 324 319 315 309 306 301 297 298 304 304 304 305 308 309 311 314 305 285
198 173 147 144 142 142 144 140 136 144 140 146 169 213 278 319 334 332 338 341 341 336 331 326 326 328 328 328 326 325 322 316 313 310 307 304 300 297 298 298 301 301 303 303 308 309 313 313 305
164 161 156 153 157 160 150 155 169 173 178 200 284 319 323 332 333 331 330 330 332 326 320 319 320 320 320 320 320 318 318 316 313 311 305 301 299 297 296 296 297 298 299 300 297 301 305 307 304
161 165 175 185 183 183 170 195 201 207 235 267 296 312 324 330 329 330 331 331 327 323 319 320 321 319 319 319 320 318 314 313 311 310 306 302 298 295 294 292 293 294 294 298 297 295 297 304 304
170 183 185 199 216 222 212 232 236 251 285 293 298 316 331 335 330 333 334 335 330 328 325 326 323 324 321 320 319 317 316 315 313 310 309 307 303 299 296 294 293 292 293 293 293 294 295 298 299
197 185 213 235 242 245 248 243 273 270 273 283 297 312 326 333 335 337 334 334 328 329 328 327 323 321 321 319 318 316 314 312 310 309 310 308 306 303 299 297 293 291 291 290 291 290 293 296 296
212 210 233 244 251 268 276 274 247 281 280 288 300 313 325 330 334 334 331 331 328 326 324 322 322 321 318 317 317 314 313 312 310 307 305 304 304 303 301 298 294 290 288 286 285 285 285 286 287
214 230 238 250 263 266 268 280 283 280 283 295 311 320 323 326 328 329 331 329 327 325 325 326 328 328 327 324 320 317 315 312 310 308 306 302 302 300 297 295 295 292 289 284 281 280 280 279 279
230 243 250 255 260 268 274 284 286 291 299 309 316 318 318 319 321 323 325 327 326 327 329 330 329 334 335 330 323 322 317 314 312 308 304 301 300 299 297 295 291 289 288 285 281 279 275 273 273
246 254 260 263 267 269 269 279 292 306 300 301 305 308 313 316 317 318 315 318 321 323 324 327 325 329 333 329 327 326 321 315 310 306 304 299 296 294 294 294 292 289 286 284 282 278 275 274 272
250 253 257 265 272 273 277 285 294 299 304 308 311 307 307 312 313 310 310 313 314 316 319 318 317 321 327 322 323 324 322 320 313 309 306 302 299 295 294 293 291 289 286 284 283 282 281 278 274
249 255 262 266 273 278 285 292 293 293 300 311 313 309 309 311 311 309 310 310 312 312 314 316 314 315 318 319 321 323 322 320 316 310 306 304 301 299 297 297 295 293 291 289 287 284 280 277 277
256 259 264 268 274 278 284 290 292 297 305 310 308 307 307 308 308 307 308 309 310 309 311 313 313 314 311 312 317 322 319 320 315 310 306 302 300 299 299 298 297 297 295 293 291 289 287 286 283
257 262 267 271 274 280 285 284 289 295 297 297 298 299 301 304 304 305 306 307 308 308 310 309 308 307 306 311 314 320 318 317 314 309 304 301 299 298 298 297 296 294 292 291 291 290 289 288 287
259 264 267 271 277 279 280 282 292 296 293 293 294 294 298 299 300 303 304 305 306 306 308 307 306 306 307 311 312 317 317 315 313 309 305 302 300 298 295 295 293 292 292 291 291 290 289 287 285